sat.trackr.live / text

‹ back to catalog

STARLINK-34901

NORAD 65207 · 2025-176K

PAYLOAD ACTIVE UNKNOWN

§ Identity

Operator
Country
US
Launch date
2025-08-14
Launch site
AFETR
Launch vehicle
Mass (kg)
RCS (m²)

Purposes: comms

External: N2YO · Heavens-Above · Gunter

§ Orbital elements

Epoch: 2026-09-20T21:35:49.927488Z

Period
93.85 min
Inclination
53.1593°
Eccentricity
0.0001106
Mean motion
15.34398496 rev/d
Perigee alt
462.0 km
Apogee alt
463.5 km
Semi-major
6,840.8 km
B*
3.9324e-4
RAAN
322.0518°
Arg perigee
68.0602°
Mean anomaly
292.0518°
Rev number
6,306

§ Raw data

STARLINK-349011 65207U 25176K   26263.89988342  .00012932  00000+0  39324-3 0  99912 65207  53.1593 322.0518 0001106  68.0602 292.0518 15.34398496 63063

JSON: /api/v1/satellites/65207 · /tle

For live sub-satellite position, see the globe view (requires WebGL).

§ Visibility from observer

Set your observer location to see the next 7 days of passes ≥ 10°. The values pass through the URL so the page stays shareable.

No JS? Fill the form by hand. The geolocation button needs JavaScript.